Time,TemperatureF,DewpointF,PressureIn,WindDirection,WindDirectionDegrees,WindSpeedMPH,WindSpeedGustMPH,Humidity,HourlyPrecipIn,Conditions,Clouds,dailyrainin,SoftwareType,DateUTC
2013-09-25 00:46:00,46.2,46.2,29.92,NE,46,2.5,2.5,100,0.00,,BKN055,0.00,VWS V14.01,2013-09-25 04:46:00,
2013-09-25 00:48:00,46.1,46.1,29.92,NE,46,2.5,2.5,100,0.00,,BKN055,0.00,VWS V14.01,2013-09-25 04:48:00,
2013-09-25 00:49:00,45.9,45.9,29.92,NE,46,2.5,2.5,100,0.00,,BKN055,0.00,VWS V14.01,2013-09-25 04:49:00,
2013-09-25 01:00:00,45.4,45.4,29.92,NE,46,2.5,2.5,100,0.00,,BKN055,0.00,VWS V14.01,2013-09-25 05:00:00,
2013-09-25 01:05:00,45.4,45.4,29.92,NE,46,2.5,2.5,100,0.00,,SCT050,0.00,VWS V14.01,2013-09-25 05:05:00,
2013-09-25 01:07:00,45.8,45.8,29.92,NE,46,2.5,2.5,100,0.00,,SCT050,0.00,VWS V14.01,2013-09-25 05:07:00,
2013-09-25 01:13:00,45.8,45.8,29.91,NE,46,2.5,2.5,100,0.00,,SCT050,0.00,VWS V14.01,2013-09-25 05:13:00,
2013-09-25 01:19:00,45.8,45.8,29.91,NE,46,2.5,2.5,100,0.00,,SCT050,0.00,VWS V14.01,2013-09-25 05:19:00,
2013-09-25 01:25:00,45.8,45.8,29.91,NE,46,2.5,2.5,100,0.00,,SCT050,0.00,VWS V14.01,2013-09-25 05:25:00,
2013-09-25 01:31:00,45.7,45.7,29.91,NE,46,2.5,2.5,100,0.00,,SCT050,0.00,VWS V14.01,2013-09-25 05:31:00,
2013-09-25 01:37:00,45.4,45.4,29.91,NE,46,2.5,2.5,100,0.00,,SCT050,0.00,VWS V14.01,2013-09-25 05:37:00,
2013-09-25 01:43:00,45.8,45.8,29.91,NE,46,2.5,2.5,100,0.00,,SCT050,0.00,VWS V14.01,2013-09-25 05:43:00,
2013-09-25 01:49:00,45.9,45.9,29.91,NE,46,2.5,2.5,100,0.00,,SCT050,0.00,VWS V14.01,2013-09-25 05:49:00,
2013-09-25 01:55:00,46.2,46.2,29.91,NE,46,2.5,2.5,100,0.00,,SCT050,0.00,VWS V14.01,2013-09-25 05:55:00,
2013-09-25 02:01:00,45.8,45.8,29.91,NE,46,2.5,2.5,100,0.00,,OVC055,0.00,VWS V14.01,2013-09-25 06:01:00,
2013-09-25 02:07:00,46.0,46.0,29.90,NE,46,2.5,2.5,100,0.00,,OVC055,0.00,VWS V14.01,2013-09-25 06:07:00,
2013-09-25 02:13:00,45.7,45.7,29.90,NE,46,2.5,2.5,100,0.00,,OVC055,0.00,VWS V14.01,2013-09-25 06:13:00,
2013-09-25 02:19:00,45.8,45.8,29.90,NE,46,2.5,2.5,100,0.00,,OVC055,0.00,VWS V14.01,2013-09-25 06:19:00,
2013-09-25 02:25:00,46.1,46.1,29.90,NE,46,2.5,2.5,100,0.00,,OVC055,0.00,VWS V14.01,2013-09-25 06:25:00,
2013-09-25 02:31:00,46.0,46.0,29.90,NE,46,2.5,2.5,100,0.00,,OVC055,0.00,VWS V14.01,2013-09-25 06:31:00,
2013-09-25 02:37:00,45.5,45.5,29.90,NE,46,2.5,2.5,100,0.00,,OVC055,0.00,VWS V14.01,2013-09-25 06:37:00,
2013-09-25 02:43:00,45.0,45.0,29.90,NE,46,2.5,2.5,100,0.00,,OVC055,0.00,VWS V14.01,2013-09-25 06:43:00,
2013-09-25 02:49:00,45.2,45.2,29.90,NE,46,2.5,2.5,100,0.00,,OVC055,0.00,VWS V14.01,2013-09-25 06:49:00,
2013-09-25 02:55:00,44.8,44.8,29.90,NE,46,2.5,2.5,100,0.00,,OVC055,0.00,VWS V14.01,2013-09-25 06:55:00,
2013-09-25 03:01:00,44.9,44.9,29.90,NE,46,2.5,2.5,100,0.00,,CLR,0.00,VWS V14.01,2013-09-25 07:01:00,
2013-09-25 03:07:00,44.6,44.6,29.90,NE,46,2.5,2.5,100,0.00,,CLR,0.00,VWS V14.01,2013-09-25 07:07:00,
2013-09-25 03:13:00,44.3,44.3,29.90,NE,46,2.5,2.5,100,0.00,,CLR,0.00,VWS V14.01,2013-09-25 07:13:00,
2013-09-25 03:19:00,44.3,44.3,29.90,NE,46,2.5,2.5,100,0.00,,CLR,0.00,VWS V14.01,2013-09-25 07:19:00,
2013-09-25 03:25:00,44.1,44.1,29.90,NE,46,2.5,2.5,100,0.00,,CLR,0.00,VWS V14.01,2013-09-25 07:25:00,
2013-09-25 03:31:00,44.0,44.0,29.90,NE,46,2.5,2.5,100,0.00,,CLR,0.00,VWS V14.01,2013-09-25 07:31:00,
2013-09-25 03:37:00,44.2,44.2,29.90,NE,46,2.5,2.5,100,0.00,,CLR,0.00,VWS V14.01,2013-09-25 07:37:00,
2013-09-25 03:43:00,44.4,44.4,29.89,NE,46,2.5,2.5,100,0.00,,CLR,0.00,VWS V14.01,2013-09-25 07:43:00,
2013-09-25 03:49:00,44.5,44.5,29.89,NE,46,2.5,2.5,100,0.00,,CLR,0.00,VWS V14.01,2013-09-25 07:49:00,
2013-09-25 03:55:00,44.5,44.5,29.89,NE,46,2.5,2.5,100,0.00,,CLR,0.00,VWS V14.01,2013-09-25 07:55:00,
2013-09-25 04:01:00,44.3,44.3,29.89,NE,46,2.5,2.5,100,0.00,,CLR,0.00,VWS V14.01,2013-09-25 08:01:00,
2013-09-25 04:07:00,44.1,44.1,29.89,NE,46,2.5,2.5,100,0.00,,CLR,0.00,VWS V14.01,2013-09-25 08:07:00,
2013-09-25 04:13:00,43.6,43.6,29.89,NE,46,2.5,2.5,100,0.00,,CLR,0.00,VWS V14.01,2013-09-25 08:13:00,
2013-09-25 04:19:00,43.4,43.4,29.89,NE,46,2.5,2.5,100,0.00,,CLR,0.00,VWS V14.01,2013-09-25 08:19:00,
2013-09-25 04:25:00,43.2,43.2,29.89,NE,46,2.5,2.5,100,0.00,,CLR,0.00,VWS V14.01,2013-09-25 08:25:00,
2013-09-25 04:31:00,43.7,43.7,29.89,NE,46,2.5,2.5,100,0.00,,CLR,0.00,VWS V14.01,2013-09-25 08:31:00,
2013-09-25 04:37:00,43.9,43.9,29.89,NE,46,2.5,2.5,100,0.00,,CLR,0.00,VWS V14.01,2013-09-25 08:37:00,
2013-09-25 04:43:00,43.7,43.7,29.89,NE,46,2.5,2.5,100,0.00,,CLR,0.00,VWS V14.01,2013-09-25 08:43:00,
2013-09-25 04:49:00,44.2,44.2,29.89,NE,46,2.5,2.5,100,0.00,,CLR,0.00,VWS V14.01,2013-09-25 08:49:00,
2013-09-25 04:55:00,44.2,44.2,29.89,NE,46,2.5,2.5,100,0.00,,CLR,0.00,VWS V14.01,2013-09-25 08:55:00,
2013-09-25 05:01:00,44.2,44.2,29.89,NE,46,2.5,2.5,100,0.00,,CLR,0.00,VWS V14.01,2013-09-25 09:01:00,
2013-09-25 05:07:00,44.6,44.6,29.89,NE,46,2.5,2.5,100,0.00,,CLR,0.00,VWS V14.01,2013-09-25 09:07:00,
2013-09-25 05:13:00,44.7,44.7,29.89,NE,46,2.5,2.5,100,0.00,,CLR,0.00,VWS V14.01,2013-09-25 09:13:00,
2013-09-25 05:19:00,44.7,44.7,29.89,NE,46,2.5,2.5,100,0.00,,CLR,0.00,VWS V14.01,2013-09-25 09:19:00,
2013-09-25 05:25:00,44.6,44.6,29.89,NE,46,2.5,2.5,100,0.00,,CLR,0.00,VWS V14.01,2013-09-25 09:25:00,
2013-09-25 05:31:00,44.1,44.1,29.89,NE,46,2.5,2.5,100,0.00,,CLR,0.00,VWS V14.01,2013-09-25 09:31:00,
2013-09-25 05:37:00,43.9,43.9,29.89,NE,46,2.5,2.5,100,0.00,,CLR,0.00,VWS V14.01,2013-09-25 09:37:00,
2013-09-25 05:43:00,43.7,43.7,29.89,NE,46,2.5,2.5,100,0.00,,CLR,0.00,VWS V14.01,2013-09-25 09:43:00,
2013-09-25 05:49:00,43.9,43.9,29.89,NE,46,2.5,2.5,100,0.00,,CLR,0.00,VWS V14.01,2013-09-25 09:49:00,
2013-09-25 05:55:00,43.8,43.8,29.89,NE,46,2.5,2.5,100,0.00,,CLR,0.00,VWS V14.01,2013-09-25 09:55:00,
2013-09-25 06:01:00,44.3,44.3,29.89,NE,46,2.5,2.5,100,0.00,,CLR,0.00,VWS V14.01,2013-09-25 10:01:00,
2013-09-25 06:07:00,44.2,44.2,29.89,NE,46,2.5,2.5,100,0.00,,CLR,0.00,VWS V14.01,2013-09-25 10:07:00,
2013-09-25 06:13:00,43.8,43.8,29.89,NE,46,2.5,2.5,100,0.00,,CLR,0.00,VWS V14.01,2013-09-25 10:13:00,
2013-09-25 06:19:00,43.7,43.7,29.89,NE,46,2.5,2.5,100,0.00,,CLR,0.00,VWS V14.01,2013-09-25 10:19:00,
2013-09-25 06:25:00,44.0,44.0,29.89,NE,46,2.5,2.5,100,0.00,,CLR,0.00,VWS V14.01,2013-09-25 10:25:00,
2013-09-25 06:31:00,44.0,44.0,29.89,NE,46,2.5,2.5,100,0.00,,CLR,0.00,VWS V14.01,2013-09-25 10:31:00,
2013-09-25 06:37:00,44.1,44.1,29.89,NE,46,2.5,2.5,100,0.00,,CLR,0.00,VWS V14.01,2013-09-25 10:37:00,
2013-09-25 06:43:00,44.4,44.4,29.89,NE,46,2.5,2.5,100,0.00,,CLR,0.00,VWS V14.01,2013-09-25 10:43:00,
2013-09-25 06:49:00,44.3,44.3,29.89,NE,46,2.5,2.5,100,0.00,,CLR,0.00,VWS V14.01,2013-09-25 10:49:00,
2013-09-25 06:55:00,44.3,44.3,29.89,NE,46,2.5,2.5,100,0.00,,CLR,0.00,VWS V14.01,2013-09-25 10:55:00,
2013-09-25 07:01:00,44.4,44.4,29.89,NE,46,2.5,2.5,100,0.00,,FEW070,0.00,VWS V14.01,2013-09-25 11:01:00,
2013-09-25 07:07:00,44.7,44.7,29.89,NE,46,2.5,2.5,100,0.00,,FEW070,0.00,VWS V14.01,2013-09-25 11:07:00,
2013-09-25 07:13:00,44.9,44.9,29.89,NE,46,2.5,2.5,100,0.00,,FEW070,0.00,VWS V14.01,2013-09-25 11:13:00,
2013-09-25 07:19:00,45.2,45.2,29.89,NE,46,2.5,2.5,100,0.00,,FEW070,0.00,VWS V14.01,2013-09-25 11:19:00,
2013-09-25 07:25:00,45.6,45.6,29.89,NE,46,2.5,2.5,100,0.00,,FEW070,0.00,VWS V14.01,2013-09-25 11:25:00,
2013-09-25 07:31:00,46.0,46.0,29.89,NE,46,2.5,2.5,100,0.00,,FEW070,0.00,VWS V14.01,2013-09-25 11:31:00,
2013-09-25 07:37:00,46.4,46.4,29.89,WSW,239,2.5,2.5,100,0.00,,FEW070,0.00,VWS V14.01,2013-09-25 11:37:00,
2013-09-25 07:43:00,46.5,46.5,29.89,WSW,239,2.5,2.5,100,0.00,,FEW070,0.00,VWS V14.01,2013-09-25 11:43:00,
2013-09-25 07:49:00,46.7,46.7,29.89,ENE,59,2.5,2.5,100,0.00,,FEW070,0.00,VWS V14.01,2013-09-25 11:49:00,
2013-09-25 07:55:00,47.2,47.2,29.89,ENE,59,2.5,2.5,100,0.00,,FEW070,0.00,VWS V14.01,2013-09-25 11:55:00,
2013-09-25 08:01:00,47.6,47.6,29.89,NW,326,2.5,3.2,100,0.00,,FEW,0.00,VWS V14.01,2013-09-25 12:01:00,
2013-09-25 08:07:00,48.1,48.1,29.89,WNW,302,2.5,5.3,100,0.00,,FEW,0.00,VWS V14.01,2013-09-25 12:07:00,
2013-09-25 08:13:00,48.7,48.7,29.90,NNW,338,3.7,4.7,100,0.00,,FEW,0.00,VWS V14.01,2013-09-25 12:13:00,
2013-09-25 08:19:00,49.3,49.3,29.90,North,10,3.9,4.2,100,0.00,,FEW,0.00,VWS V14.01,2013-09-25 12:19:00,
2013-09-25 08:25:00,49.9,49.9,29.90,WNW,301,2.5,2.5,100,0.00,,FEW,0.00,VWS V14.01,2013-09-25 12:25:00,
2013-09-25 08:27:00,50.1,50.1,29.90,WNW,301,2.5,2.5,100,0.00,,FEW,0.00,VWS V14.01,2013-09-25 12:27:00,
2013-09-25 08:33:00,50.9,50.9,29.90,WNW,301,2.5,2.5,100,0.00,,FEW,0.00,VWS V14.01,2013-09-25 12:33:00,
2013-09-25 08:39:00,51.5,51.3,29.90,WNW,300,2.5,4.0,99,0.00,,FEW,0.00,VWS V14.01,2013-09-25 12:39:00,
2013-09-25 08:45:00,52.1,51.9,29.90,WSW,257,2.5,3.5,99,0.00,,FEW,0.00,VWS V14.01,2013-09-25 12:45:00,
2013-09-25 08:51:00,52.9,52.3,29.90,West,271,2.9,5.2,98,0.00,,FEW,0.00,VWS V14.01,2013-09-25 12:51:00,
2013-09-25 08:57:00,53.4,52.5,29.91,West,271,2.5,2.7,97,0.00,,FEW,0.00,VWS V14.01,2013-09-25 12:57:00,
2013-09-25 09:03:00,54.1,52.9,29.91,NW,315,2.5,7.5,96,0.00,,FEW,0.00,VWS V14.01,2013-09-25 13:03:00,
2013-09-25 09:09:00,54.8,53.2,29.91,SW,217,2.5,6.6,94,0.00,,FEW,0.00,VWS V14.01,2013-09-25 13:09:00,
2013-09-25 09:15:00,55.3,52.1,29.91,NNE,14,2.5,9.9,89,0.00,,FEW,0.00,VWS V14.01,2013-09-25 13:15:00,
2013-09-25 09:21:00,55.4,51.9,29.91,NE,35,2.5,5.4,88,0.00,,FEW,0.00,VWS V14.01,2013-09-25 13:21:00,
2013-09-25 09:27:00,55.5,52.5,29.91,NNW,340,4.7,6.5,90,0.00,,FEW,0.00,VWS V14.01,2013-09-25 13:27:00,
2013-09-25 09:33:00,55.9,52.7,29.91,ENE,75,2.5,3.6,89,0.00,,FEW,0.00,VWS V14.01,2013-09-25 13:33:00,
2013-09-25 09:39:00,56.5,53.0,29.91,NE,42,4.7,6.5,88,0.00,,FEW,0.00,VWS V14.01,2013-09-25 13:39:00,
2013-09-25 09:45:00,56.4,52.7,29.92,North,6,2.5,5.7,87,0.00,,FEW,0.00,VWS V14.01,2013-09-25 13:45:00,
2013-09-25 09:51:00,56.5,51.5,29.92,North,6,2.5,9.3,83,0.00,,FEW,0.00,VWS V14.01,2013-09-25 13:51:00,
2013-09-25 09:57:00,56.9,52.5,29.92,North,1,5.9,13.5,85,0.00,,FEW,0.00,VWS V14.01,2013-09-25 13:57:00,
2013-09-25 10:03:00,57.0,52.1,29.92,North,3,6.9,10.0,84,0.00,,FEW055,0.00,VWS V14.01,2013-09-25 14:03:00,
2013-09-25 10:09:00,57.1,52.3,29.92,North,0,2.5,8.8,84,0.00,,FEW055,0.00,VWS V14.01,2013-09-25 14:09:00,
2013-09-25 10:15:00,57.0,52.3,29.92,NNE,24,2.5,5.9,84,0.00,,FEW055,0.00,VWS V14.01,2013-09-25 14:15:00,
2013-09-25 10:21:00,57.6,52.9,29.92,WSW,238,3.6,6.4,84,0.00,,FEW055,0.00,VWS V14.01,2013-09-25 14:21:00,
2013-09-25 10:27:00,57.7,53.4,29.92,NE,44,2.5,5.4,85,0.00,,FEW055,0.00,VWS V14.01,2013-09-25 14:27:00,
2013-09-25 10:33:00,57.8,53.8,29.93,North,6,3.7,7.9,87,0.00,,FEW055,0.00,VWS V14.01,2013-09-25 14:33:00,
2013-09-25 10:39:00,57.8,53.3,29.92,NW,326,4.1,7.3,85,0.00,,FEW055,0.00,VWS V14.01,2013-09-25 14:39:00,
2013-09-25 10:45:00,57.1,53.0,29.93,SW,215,4.6,9.8,86,0.00,,FEW055,0.00,VWS V14.01,2013-09-25 14:45:00,
2013-09-25 10:51:00,57.5,54.0,29.93,NNE,17,4.4,8.1,88,0.00,,FEW055,0.00,VWS V14.01,2013-09-25 14:51:00,
2013-09-25 10:57:00,57.1,53.3,29.93,NNW,343,3.1,5.5,87,0.00,,FEW055,0.00,VWS V14.01,2013-09-25 14:57:00,
2013-09-25 11:03:00,58.0,54.6,29.93,NNW,345,4.4,8.8,88,0.00,,FEW055,0.00,VWS V14.01,2013-09-25 15:03:00,
2013-09-25 11:09:00,58.0,55.9,29.93,NNW,345,6.7,6.7,93,0.00,,FEW055,0.00,VWS V14.01,2013-09-25 15:09:00,
2013-09-25 11:15:00,58.4,55.8,29.92,NNW,328,4.2,7.8,91,0.00,,FEW055,0.00,VWS V14.01,2013-09-25 15:15:00,
2013-09-25 11:21:00,57.8,55.2,29.93,SE,146,3.7,9.4,91,0.00,,FEW055,0.00,VWS V14.01,2013-09-25 15:21:00,
2013-09-25 11:27:00,58.5,56.3,29.93,NE,41,5.2,6.5,92,0.00,,FEW055,0.00,VWS V14.01,2013-09-25 15:27:00,
2013-09-25 11:33:00,58.4,56.0,29.92,NNE,14,3.1,8.6,92,0.00,,FEW055,0.00,VWS V14.01,2013-09-25 15:33:00,
2013-09-25 11:39:00,60.3,56.5,29.92,NNW,339,5.5,7.1,87,0.00,,FEW055,0.00,VWS V14.01,2013-09-25 15:39:00,
2013-09-25 11:45:00,60.1,55.3,29.93,SSW,201,4.1,6.2,84,0.00,,FEW055,0.00,VWS V14.01,2013-09-25 15:45:00,
2013-09-25 11:51:00,60.4,54.7,29.92,ENE,66,2.5,6.5,81,0.00,,FEW055,0.00,VWS V14.01,2013-09-25 15:51:00,
2013-09-25 11:57:00,59.3,54.7,29.92,NNE,15,5.3,6.0,85,0.00,,FEW055,0.00,VWS V14.01,2013-09-25 15:57:00,
2013-09-25 12:03:00,59.5,55.3,29.92,NNE,31,3.1,4.6,86,0.00,,SCT100,0.00,VWS V14.01,2013-09-25 16:03:00,
2013-09-25 12:09:00,60.0,55.5,29.92,NNE,21,3.7,6.2,85,0.00,,SCT100,0.00,VWS V14.01,2013-09-25 16:09:00,
2013-09-25 12:15:00,59.9,54.7,29.92,North,11,3.4,5.2,83,0.00,,SCT100,0.00,VWS V14.01,2013-09-25 16:15:00,
2013-09-25 12:21:00,60.0,53.9,29.92,SE,141,6.4,6.4,80,0.00,,SCT100,0.00,VWS V14.01,2013-09-25 16:21:00,
2013-09-25 12:27:00,59.9,53.3,29.92,North,8,5.0,7.4,79,0.00,,SCT100,0.00,VWS V14.01,2013-09-25 16:27:00,
2013-09-25 12:33:00,60.2,53.2,29.92,ESE,110,3.2,4.3,78,0.00,,SCT100,0.00,VWS V14.01,2013-09-25 16:33:00,
2013-09-25 12:39:00,59.5,53.3,29.92,ESE,121,4.1,8.0,80,0.00,,SCT100,0.00,VWS V14.01,2013-09-25 16:39:00,
2013-09-25 12:45:00,60.1,52.8,29.92,SSW,197,4.3,4.3,77,0.00,,SCT100,0.00,VWS V14.01,2013-09-25 16:45:00,
2013-09-25 12:51:00,60.2,53.5,29.92,North,3,2.5,5.1,78,0.00,,SCT100,0.00,VWS V14.01,2013-09-25 16:51:00,
2013-09-25 12:57:00,59.9,52.8,29.92,NNE,13,3.7,4.4,77,0.00,,SCT100,0.00,VWS V14.01,2013-09-25 16:57:00,
2013-09-25 13:03:00,59.2,51.2,29.92,North,6,3.2,5.7,75,0.00,,SCT120,0.00,VWS V14.01,2013-09-25 17:03:00,
2013-09-25 13:09:00,59.8,51.4,29.92,NNW,340,4.3,6.5,74,0.00,,SCT120,0.00,VWS V14.01,2013-09-25 17:09:00,
2013-09-25 13:15:00,60.7,49.0,29.92,East,82,4.6,6.4,65,0.00,,SCT120,0.00,VWS V14.01,2013-09-25 17:15:00,
2013-09-25 13:21:00,59.7,49.3,29.92,NNE,22,4.7,8.7,68,0.00,,SCT120,0.00,VWS V14.01,2013-09-25 17:21:00,
2013-09-25 13:27:00,61.2,51.7,29.92,NW,322,5.8,7.3,71,0.00,,SCT120,0.00,VWS V14.01,2013-09-25 17:27:00,
2013-09-25 13:33:00,60.2,49.5,29.92,NE,49,5.2,5.7,68,0.00,,SCT120,0.00,VWS V14.01,2013-09-25 17:33:00,
2013-09-25 13:39:00,61.8,49.2,29.92,ENE,72,4.8,5.2,63,0.00,,SCT120,0.00,VWS V14.01,2013-09-25 17:39:00,
2013-09-25 13:45:00,61.0,49.7,29.92,NE,55,3.7,5.9,66,0.00,,SCT120,0.00,VWS V14.01,2013-09-25 17:45:00,
2013-09-25 13:51:00,60.4,50.9,29.92,NW,309,7.3,8.8,71,0.00,,SCT120,0.00,VWS V14.01,2013-09-25 17:51:00,
2013-09-25 13:57:00,60.5,51.6,29.92,North,7,3.6,5.7,72,0.00,,SCT120,0.00,VWS V14.01,2013-09-25 17:57:00,
2013-09-25 14:03:00,59.4,50.5,29.92,NNE,17,3.6,9.0,72,0.00,,SCT110,0.00,VWS V14.01,2013-09-25 18:03:00,
2013-09-25 14:09:00,60.2,52.1,29.92,SSE,148,3.9,7.4,75,0.00,,SCT110,0.00,VWS V14.01,2013-09-25 18:09:00,
2013-09-25 14:15:00,59.1,53.9,29.92,East,83,2.5,5.1,83,0.00,,SCT110,0.00,VWS V14.01,2013-09-25 18:15:00,
2013-09-25 14:21:00,58.4,52.1,29.92,North,10,6.5,7.3,80,0.00,,SCT110,0.00,VWS V14.01,2013-09-25 18:21:00,
2013-09-25 14:27:00,57.5,51.5,29.92,NE,39,3.8,8.2,80,0.00,,SCT110,0.00,VWS V14.01,2013-09-25 18:27:00,
2013-09-25 14:33:00,58.6,52.8,29.92,East,91,2.5,5.5,81,0.00,,SCT110,0.00,VWS V14.01,2013-09-25 18:33:00,
2013-09-25 14:39:00,59.7,52.1,29.91,ENE,70,2.5,11.9,76,0.00,,SCT110,0.00,VWS V14.01,2013-09-25 18:39:00,
2013-09-25 14:45:00,58.1,50.4,29.92,North,10,3.9,7.3,76,0.00,,SCT110,0.00,VWS V14.01,2013-09-25 18:45:00,
2013-09-25 14:51:00,59.0,51.8,29.92,East,79,4.1,7.8,77,0.00,,SCT110,0.00,VWS V14.01,2013-09-25 18:51:00,
2013-09-25 14:57:00,58.5,51.0,29.92,NE,53,4.9,8.3,76,0.00,,SCT110,0.00,VWS V14.01,2013-09-25 18:57:00,
2013-09-25 15:03:00,58.3,50.7,29.92,SE,128,3.0,4.1,76,0.00,,SCT110,0.00,VWS V14.01,2013-09-25 19:03:00,
2013-09-25 15:09:00,57.9,51.8,29.92,ESE,110,2.5,3.4,80,0.00,,SCT110,0.00,VWS V14.01,2013-09-25 19:09:00,
2013-09-25 15:15:00,59.2,50.3,29.92,East,101,7.0,10.5,72,0.00,,SCT110,0.00,VWS V14.01,2013-09-25 19:15:00,
2013-09-25 15:21:00,58.5,48.1,29.92,SSE,163,6.1,11.8,68,0.00,,SCT110,0.00,VWS V14.01,2013-09-25 19:21:00,
2013-09-25 15:27:00,57.9,48.7,29.92,SE,135,6.3,8.2,71,0.00,,SCT110,0.00,VWS V14.01,2013-09-25 19:27:00,
2013-09-25 15:33:00,57.8,47.8,29.92,NNW,330,2.5,5.5,69,0.00,,SCT110,0.00,VWS V14.01,2013-09-25 19:33:00,
2013-09-25 15:39:00,58.5,48.4,29.91,NNW,347,4.2,8.2,69,0.00,,SCT110,0.00,VWS V14.01,2013-09-25 19:39:00,
2013-09-25 15:45:00,58.2,48.4,29.92,ESE,118,6.0,12.6,70,0.00,,SCT110,0.00,VWS V14.01,2013-09-25 19:45:00,
2013-09-25 15:51:00,57.9,49.8,29.92,NE,34,2.5,7.5,74,0.00,,SCT110,0.00,VWS V14.01,2013-09-25 19:51:00,
2013-09-25 15:57:00,59.1,49.7,29.92,North,352,3.6,9.9,71,0.00,,SCT110,0.00,VWS V14.01,2013-09-25 19:57:00,
2013-09-25 16:03:00,58.1,48.3,29.91,NW,316,3.1,3.9,70,0.00,,OVC050,0.00,VWS V14.01,2013-09-25 20:03:00,
2013-09-25 16:09:00,58.4,50.3,29.92,NE,39,4.6,6.7,74,0.00,,OVC050,0.00,VWS V14.01,2013-09-25 20:09:00,
2013-09-25 16:15:00,58.1,50.5,29.92,ENE,65,2.5,6.9,76,0.00,,OVC050,0.00,VWS V14.01,2013-09-25 20:15:00,
2013-09-25 16:21:00,57.7,50.1,29.92,East,97,2.5,8.2,76,0.00,,OVC050,0.00,VWS V14.01,2013-09-25 20:21:00,
2013-09-25 16:27:00,57.8,51.0,29.92,SSE,153,6.1,6.8,78,0.00,,OVC050,0.00,VWS V14.01,2013-09-25 20:27:00,
2013-09-25 16:33:00,57.4,50.9,29.91,SE,135,4.3,8.3,79,0.00,,OVC050,0.00,VWS V14.01,2013-09-25 20:33:00,
2013-09-25 16:39:00,57.1,50.9,29.91,NNE,28,2.5,8.2,80,0.00,,OVC050,0.00,VWS V14.01,2013-09-25 20:39:00,
2013-09-25 16:45:00,57.1,51.0,29.91,ENE,65,2.5,4.7,80,0.00,,OVC050,0.00,VWS V14.01,2013-09-25 20:45:00,
2013-09-25 16:51:00,56.9,51.5,29.91,SSE,149,7.8,9.0,82,0.00,,OVC050,0.00,VWS V14.01,2013-09-25 20:51:00,
2013-09-25 16:57:00,56.7,51.7,29.92,SE,141,5.6,8.2,83,0.00,,OVC050,0.00,VWS V14.01,2013-09-25 20:57:00,
2013-09-25 17:03:00,56.6,51.8,29.91,ENE,77,4.9,7.3,84,0.00,,OVC050,0.00,VWS V14.01,2013-09-25 21:03:00,
2013-09-25 17:09:00,56.4,51.9,29.92,East,91,3.2,5.4,85,0.00,,OVC050,0.00,VWS V14.01,2013-09-25 21:09:00,
2013-09-25 17:15:00,56.4,52.3,29.92,SE,132,2.5,4.4,86,0.00,,OVC050,0.00,VWS V14.01,2013-09-25 21:15:00,
2013-09-25 17:21:00,56.1,51.2,29.92,SSE,167,3.2,8.0,83,0.00,,OVC050,0.00,VWS V14.01,2013-09-25 21:21:00,
2013-09-25 17:27:00,56.3,51.7,29.92,SE,141,3.9,5.5,85,0.00,,OVC050,0.00,VWS V14.01,2013-09-25 21:27:00,
2013-09-25 17:33:00,56.3,52.4,29.92,East,101,2.5,2.5,87,0.00,,OVC050,0.00,VWS V14.01,2013-09-25 21:33:00,
2013-09-25 17:39:00,56.2,52.2,29.92,East,101,3.2,3.2,86,0.00,,OVC050,0.00,VWS V14.01,2013-09-25 21:39:00,
2013-09-25 17:45:00,55.6,52.8,29.92,SE,131,2.5,2.5,90,0.00,,OVC050,0.00,VWS V14.01,2013-09-25 21:45:00,
2013-09-25 17:51:00,55.2,52.6,29.92,SSE,149,5.4,5.4,91,0.00,,OVC050,0.00,VWS V14.01,2013-09-25 21:51:00,
2013-09-25 17:57:00,55.6,52.3,29.92,SE,128,2.5,6.3,88,0.00,,OVC050,0.00,VWS V14.01,2013-09-25 21:57:00,
2013-09-25 18:03:00,55.2,52.7,29.92,ENE,68,2.5,2.5,91,0.00,,OVC055,0.00,VWS V14.01,2013-09-25 22:03:00,
2013-09-25 18:09:00,54.8,52.8,29.93,ENE,68,2.5,2.5,93,0.00,,OVC055,0.00,VWS V14.01,2013-09-25 22:09:00,
2013-09-25 18:15:00,54.8,53.3,29.93,SSE,148,2.5,2.5,95,0.00,,OVC055,0.00,VWS V14.01,2013-09-25 22:15:00,
2013-09-25 18:21:00,55.0,53.6,29.93,ESE,112,2.5,4.0,95,0.00,,OVC055,0.00,VWS V14.01,2013-09-25 22:21:00,
2013-09-25 18:27:00,54.8,53.1,29.93,ESE,112,2.5,2.5,94,0.00,,OVC055,0.00,VWS V14.01,2013-09-25 22:27:00,
2013-09-25 18:33:00,54.7,53.4,29.93,ESE,112,2.5,2.5,96,0.00,,OVC055,0.00,VWS V14.01,2013-09-25 22:33:00,
2013-09-25 18:39:00,54.4,53.2,29.93,ESE,112,2.5,2.5,96,0.00,,OVC055,0.00,VWS V14.01,2013-09-25 22:39:00,
2013-09-25 18:45:00,54.2,53.1,29.93,ESE,112,2.5,2.5,96,0.00,,OVC055,0.00,VWS V14.01,2013-09-25 22:45:00,
2013-09-25 18:51:00,54.4,53.5,29.93,ESE,112,2.5,2.5,97,0.00,,OVC055,0.00,VWS V14.01,2013-09-25 22:51:00,
2013-09-25 18:57:00,54.4,53.5,29.94,ESE,112,2.5,2.5,97,0.00,,OVC055,0.00,VWS V14.01,2013-09-25 22:57:00,
2013-09-25 19:03:00,54.3,53.5,29.94,ESE,112,2.5,2.5,97,0.00,,OVC055,0.00,VWS V14.01,2013-09-25 23:03:00,
2013-09-25 19:09:00,54.1,53.3,29.94,ESE,112,2.5,2.5,97,0.00,,OVC055,0.00,VWS V14.01,2013-09-25 23:09:00,
2013-09-25 19:15:00,54.0,53.1,29.94,ESE,112,2.5,2.5,97,0.00,,OVC055,0.00,VWS V14.01,2013-09-25 23:15:00,
2013-09-25 19:21:00,54.0,53.3,29.94,ESE,112,2.5,2.5,98,0.00,,OVC055,0.00,VWS V14.01,2013-09-25 23:21:00,
2013-09-25 19:27:00,53.9,53.5,29.94,ESE,112,2.5,2.5,99,0.00,,OVC055,0.00,VWS V14.01,2013-09-25 23:27:00,
2013-09-25 19:33:00,54.1,54.0,29.95,ESE,112,2.5,2.5,100,0.00,,OVC055,0.00,VWS V14.01,2013-09-25 23:33:00,
2013-09-25 19:39:00,54.0,53.9,29.95,ESE,112,2.5,2.5,100,0.00,,OVC055,0.00,VWS V14.01,2013-09-25 23:39:00,
2013-09-25 19:45:00,53.9,53.8,29.95,ESE,112,2.5,2.5,100,0.00,,OVC055,0.00,VWS V14.01,2013-09-25 23:45:00,
2013-09-25 19:51:00,53.9,53.7,29.95,ESE,112,2.5,2.5,99,0.00,,OVC055,0.00,VWS V14.01,2013-09-25 23:51:00,
2013-09-25 19:57:00,54.1,53.9,29.95,ESE,112,2.5,2.5,99,0.00,,OVC055,0.00,VWS V14.01,2013-09-25 23:57:00,
2013-09-25 20:03:00,54.1,53.9,29.95,ESE,112,2.5,2.5,99,0.00,,OVC055,0.00,VWS V14.01,2013-09-26 00:03:00,
2013-09-25 20:09:00,54.2,53.8,29.95,East,101,3.9,5.3,98,0.00,,OVC055,0.00,VWS V14.01,2013-09-26 00:09:00,
2013-09-25 20:15:00,53.9,53.6,29.95,East,101,2.5,2.5,99,0.00,,OVC055,0.00,VWS V14.01,2013-09-26 00:15:00,
2013-09-25 20:21:00,53.9,53.6,29.96,East,101,2.5,2.5,99,0.00,,OVC055,0.00,VWS V14.01,2013-09-26 00:21:00,
2013-09-25 20:27:00,54.0,53.8,29.96,East,101,2.5,2.5,99,0.00,,OVC055,0.00,VWS V14.01,2013-09-26 00:27:00,
2013-09-25 20:33:00,54.0,54.0,29.96,East,101,2.5,2.5,100,0.00,,OVC055,0.00,VWS V14.01,2013-09-26 00:33:00,
2013-09-25 20:41:00,53.9,53.7,29.96,East,101,2.5,2.5,99,0.00,,OVC055,0.00,VWS V14.01,2013-09-26 00:41:00,
2013-09-25 20:47:00,53.9,53.7,29.96,East,101,2.5,2.5,99,0.00,,OVC055,0.00,VWS V14.01,2013-09-26 00:47:00,
2013-09-25 20:53:00,53.6,53.5,29.96,East,101,2.5,2.5,100,0.00,,OVC055,0.00,VWS V14.01,2013-09-26 00:53:00,
2013-09-25 20:59:00,53.6,53.6,29.96,East,101,2.5,2.5,100,0.00,,OVC055,0.00,VWS V14.01,2013-09-26 00:59:00,
2013-09-25 21:05:00,53.6,53.6,29.96,East,101,2.5,2.5,100,0.00,,BKN055,0.00,VWS V14.01,2013-09-26 01:05:00,
2013-09-25 21:11:00,53.6,53.6,29.96,East,101,2.5,2.5,100,0.00,,BKN055,0.00,VWS V14.01,2013-09-26 01:11:00,
2013-09-25 21:17:00,53.7,53.7,29.97,East,101,2.5,2.5,100,0.00,,BKN055,0.00,VWS V14.01,2013-09-26 01:17:00,
2013-09-25 21:23:00,53.7,53.7,29.97,East,101,2.5,2.5,100,0.00,,BKN055,0.00,VWS V14.01,2013-09-26 01:23:00,
2013-09-25 21:29:00,53.6,53.5,29.97,East,101,2.5,2.5,100,0.00,,BKN055,0.00,VWS V14.01,2013-09-26 01:29:00,
2013-09-25 21:35:00,53.7,53.6,29.97,East,101,2.5,2.5,100,0.00,,BKN055,0.00,VWS V14.01,2013-09-26 01:35:00,
2013-09-25 21:41:00,53.6,53.5,29.97,East,101,2.5,2.5,100,0.00,,BKN055,0.00,VWS V14.01,2013-09-26 01:41:00,
2013-09-25 21:47:00,53.3,53.3,29.97,East,101,2.5,2.5,100,0.00,,BKN055,0.00,VWS V14.01,2013-09-26 01:47:00,
2013-09-25 21:53:00,53.4,53.4,29.97,East,101,2.5,2.5,100,0.00,,BKN055,0.00,VWS V14.01,2013-09-26 01:53:00,
2013-09-25 21:59:00,53.2,53.2,29.97,East,101,2.5,2.5,100,0.00,,BKN055,0.00,VWS V14.01,2013-09-26 01:59:00,
2013-09-25 22:05:00,53.2,53.2,29.97,East,101,2.5,2.5,100,0.00,,BKN055,0.00,VWS V14.01,2013-09-26 02:05:00,
2013-09-25 22:11:00,53.3,53.3,29.97,SW,217,2.5,3.2,100,0.00,,BKN055,0.00,VWS V14.01,2013-09-26 02:11:00,
2013-09-25 22:17:00,53.5,53.5,29.97,SW,217,2.5,2.5,100,0.00,,BKN055,0.00,VWS V14.01,2013-09-26 02:17:00,
2013-09-25 22:23:00,53.6,53.6,29.98,SW,217,2.5,2.5,100,0.00,,BKN055,0.00,VWS V14.01,2013-09-26 02:23:00,
2013-09-25 22:29:00,53.7,53.7,29.98,SW,217,2.5,2.5,100,0.00,,BKN055,0.00,VWS V14.01,2013-09-26 02:29:00,
2013-09-25 22:35:00,53.4,53.4,29.98,SW,217,2.5,2.5,100,0.00,,BKN055,0.00,VWS V14.01,2013-09-26 02:35:00,
2013-09-25 22:41:00,53.2,53.2,29.98,SW,217,2.5,2.5,100,0.00,,BKN055,0.00,VWS V14.01,2013-09-26 02:41:00,
2013-09-25 22:47:00,53.3,53.3,29.98,SW,217,2.5,2.5,100,0.00,,BKN055,0.00,VWS V14.01,2013-09-26 02:47:00,
2013-09-25 22:53:00,53.2,53.2,29.98,SW,217,2.5,2.5,100,0.00,,BKN055,0.00,VWS V14.01,2013-09-26 02:53:00,
2013-09-25 22:59:00,53.2,53.2,29.98,SW,217,2.5,2.5,100,0.00,,BKN055,0.00,VWS V14.01,2013-09-26 02:59:00,
2013-09-25 23:05:00,53.3,53.3,29.98,SW,217,2.5,2.5,100,0.00,,BKN055,0.00,VWS V14.01,2013-09-26 03:05:00,
2013-09-25 23:11:00,53.3,53.3,29.98,SW,217,2.5,2.5,100,0.00,,OVC050,0.00,VWS V14.01,2013-09-26 03:11:00,
2013-09-25 23:17:00,53.3,53.3,29.98,SW,217,2.5,2.5,100,0.00,,OVC050,0.00,VWS V14.01,2013-09-26 03:17:00,
2013-09-25 23:23:00,53.2,53.2,29.98,SW,217,2.5,2.5,100,0.00,,OVC050,0.00,VWS V14.01,2013-09-26 03:23:00,
2013-09-25 23:29:00,53.3,53.3,29.98,SW,217,2.5,2.5,100,0.00,,OVC050,0.00,VWS V14.01,2013-09-26 03:29:00,
2013-09-25 23:35:00,53.2,53.2,29.98,SW,217,2.5,2.5,100,0.00,,OVC050,0.00,VWS V14.01,2013-09-26 03:35:00,
2013-09-25 23:41:00,53.3,53.3,29.98,SW,217,2.5,2.5,100,0.00,,OVC050,0.00,VWS V14.01,2013-09-26 03:41:00,
2013-09-25 23:47:00,53.1,53.1,29.98,SW,217,2.5,2.5,100,0.00,,OVC050,0.00,VWS V14.01,2013-09-26 03:47:00,
2013-09-25 23:53:00,53.2,53.2,29.98,SW,217,2.5,2.5,100,0.00,,OVC050,0.00,VWS V14.01,2013-09-26 03:53:00,